This is the latest recevied weather packets stored in our database for station/object K7DC. If no packets are shown the sender has not sent any weather packets the latest 10 day(s).
| Time | Temp. | Humidity | Pressure | Rain* | Wind** | Luminosity | Snow |
|---|---|---|---|---|---|---|---|
| 1777473219 | 16.11° C | 31% | 1016.8 hPa | 0 mm | - | 82 W/m² | - |
| 1777472915 | 16.11° C | 32% | 1016.8 hPa | 0 mm | - | 83 W/m² | - |
| 1777472612 | 16.11° C | 31% | 1016.7 hPa | 0 mm | - | 92 W/m² | - |
| 1777472309 | 16.11° C | 31% | 1016.8 hPa | 0 mm | - | 91 W/m² | - |
| 1777472006 | 16.11° C | 30% | 1016.8 hPa | 0 mm | - | 93 W/m² | - |
| 1777471702 | 15.56° C | 31% | 1016.8 hPa | 0 mm | - | 88 W/m² | - |
| 1777471398 | 15.56° C | 31% | 1016.7 hPa | 0 mm | - | 82 W/m² | - |
| 1777471095 | 15.56° C | 33% | 1017.1 hPa | 0 mm | - | 87 W/m² | - |
| 1777470792 | 15.56° C | 32% | 1016.7 hPa | 0 mm | - | 76 W/m² | - |
| 1777470489 | 15° C | 32% | 1016.7 hPa | 0 mm | - | 60 W/m² | - |
| 1777470184 | 15° C | 31% | 1016.5 hPa | 0 mm | - | 49 W/m² | - |
| 1777469881 | 14.44° C | 33% | 1016.8 hPa | 0 mm | - | 44 W/m² | - |
| 1777469577 | 13.89° C | 34% | 1016.4 hPa | 0 mm | - | 46 W/m² | - |
| 1777469272 | 13.89° C | 32% | 1016.5 hPa | 0 mm | - | 29 W/m² | - |
| 1777468967 | 13.89° C | 31% | 1016.7 hPa | 0 mm | - | 20 W/m² | - |
| 1777468663 | 13.89° C | 30% | 1016.5 hPa | 0 mm | - | 30 W/m² | - |
| 1777468360 | 13.89° C | 30% | 1016.6 hPa | 0 mm | - | 23 W/m² | - |
| 1777468056 | 13.89° C | 30% | 1016.5 hPa | 0 mm | - | 14 W/m² | - |
| 1777467752 | 13.89° C | 29% | 1016.1 hPa | 0 mm | - | 7 W/m² | - |
| 1777467447 | 13.89° C | 28% | 1016.1 hPa | 0 mm | - | 5 W/m² | - |
| 1777467143 | 13.89° C | 28% | 1016.3 hPa | 0 mm | - | 5 W/m² | - |
| 1777466841 | 13.89° C | 28% | 1016.3 hPa | 0 mm | - | 3 W/m² | - |
| 1777466538 | 14.44° C | 27% | 1016.1 hPa | 0 mm | - | 2 W/m² | - |
| 1777466235 | 14.44° C | 27% | 1016.1 hPa | 0 mm | - | 1 W/m² | - |
| 1777465930 | 13.89° C | 29% | 1015.9 hPa | 0 mm | - | 1 W/m² | - |
* Rain latest hour (hover to see other rain measurements)
** Current wind speed in m/s (hover to see current wind gust speed)